Regional Weather Roundup
Issued by NWS

Home | Current Version | Previous Version | Text Only | Print | Product List | Glossary On
Versions: 1 2 3 4 5 6 7 8 9 10 11 12 13 14 15 16 17 18 19 20 21 22 23 24 25 26 27 28 29 30 31 32 33 34 35 36 37 38 39 40 41 42 43 44 45 46 47 48 49 50
520
ASUS43 KLSX 230807
RWRMO

WEATHER SUMMARY FOR MISSOURI
NATIONAL WEATHER SERVICE SPRINGFIELD MO
300 AM CDT SAT JUL 23 2016

NOTE: "FAIR" INDICATES FEW OR NO CLOUDS BELOW 12,000 FEET WITH NO
       SIGNIFICANT WEATHER AND/OR OBSTRUCTIONS TO VISIBILITY.
       CURRENT SKY AND/OR WEATHER CONDITIONS ARE NOT AVAILABLE FOR
       CHILLICOTHE AND FARMINGTON.

MOZ001>031-035>038-043-044-053-054-230900-
...NORTHERN AND WESTERN MISSOURI...

CITY           SKY/WX    TMP DP  RH WIND       PRES   REMARKS
KANSAS CTY INT PTCLDY    79  73  82 S9        29.96F
KANSAS C DTWN  CLOUDY    83  73  72 SW6       29.96S
LEE`S SUMMIT   CLEAR     83  76  79 S8        29.98S HX  91
ST JOSEPH      MOCLDY    82  73  74 S6        29.94F
CHILLICOTHE      N/A     80  77  90 CALM      29.97F
KIRKSVILLE     CLOUDY    76  74  93 S6        29.99S

$$
MOZ066>068-077>081-088>096-101>105-230900-
...SOUTHWEST MISSOURI...

CITY           SKY/WX    TMP DP  RH WIND       PRES   REMARKS
SPRINGFIELD    CLEAR     80  74  81 SE7       30.01S
JOPLIN         CLEAR     80  73  79 S7        29.99S
BRANSON        CLEAR     77  73  88 CALM      30.03S

$$
MOZ032>034-039>042-045>050-055>058-069>072-230900-
...CENTRAL MISSOURI...

CITY           SKY/WX    TMP DP  RH WIND       PRES   REMARKS
COLUMBIA       CLEAR     77  76  96 SE5       29.99F
JEFFERSON CITY CLEAR     76  75  97 SE5       29.98F
ROLLA          CLEAR     76  73  91 S6        30.00S
SEDALIA        CLEAR     79  75  87 S7        29.99F
WHITEMAN AFB   CLEAR     79  78  98 S5        29.96F
OSAGE BEACH    CLEAR     78  75  90 CALM      30.00S

$$
MOZ051-052-059>065-230900-
...EAST CENTRAL MISSOURI...

CITY           SKY/WX    TMP DP  RH WIND       PRES   REMARKS
ST LOUIS INTL  NOT AVBL
SPIRIT OF STL  PTCLDY    74  73  97 CALM      29.98F
ST CHARLES     PTCLDY    75  75 100 CALM      29.98S

$$
MOZ072>076-082>087-097>100-106>115-230900-
...SOUTH CENTRAL AND SOUTHEAST MISSOURI...

CITY           SKY/WX    TMP DP  RH WIND       PRES   REMARKS
CAPE GIRARDEAU PTCLDY    73  72  96 SE5       29.97F
FARMINGTON     CLOUDY    72  72 100 CALM      30.03R
POPLAR BLUFF   PTCLDY    78  74  87 CALM      29.97F
WEST PLAINS    CLEAR     77  73  87 CALM      30.04S

$$



USA.gov is the U.S. government's official web portal to all federal, state and local government web resources and services.